Flag for United Kingdom Weather past 2 weeks in Cardiff, Wales, United Kingdom

Now
37 °F

Passing clouds.


Feels Like: 28 °F
Forecast: 37 / 42 °F
Wind: 15 mph from Northwest

Location: Wales Airport

Current Time: Jan 31, 2015 at 4:17:08 AM

Latest Report: Jan 31, 2015 at 3:20 AM


Visibility: N/A

Pressure: 29.03 "Hg

Humidity: 87%

Dew point: 34 °F

Location of CardiffLocation

Historic Weather in Cardiff — Graph

°F

Cardiff temperature yesterday

Maximum temperature yesterday: 45 °F (at 12:20 PM)
Minimum temperature yesterday: 36 °F (at 7:50 AM)
Average temperature yesterday: 40 °F

Past Weeks' High & Low Weather Summary

 TemperatureHumidityPressure
High48 °F (Jan 23, 7:50 PM)100% (Jan 16, 8:50 AM)30.51 "Hg (Jan 16, 8:50 AM)
Low28 °F (Jan 23, 6:20 AM)57% (Jan 19, 12:50 PM)28.80 "Hg (Jan 30, 4:20 AM)
Average40 °F88%29.89 "Hg
* Reported Jan 16 2:20 AM — Jan 31 2:20 AM, Cardiff, Weather by CustomWeather, © 2014

Note: Actual official high and low records may vary slightly from our data, if they occured in-between our weather recording intervals... More about our weather records

Advertising

Cardiff weather history for previous 24 hours

 ConditionsComfort  
Time TempWeatherWind HumidityBarometerVisibility
2:20 AM
Jan 31
37 °FRain. Mostly cloudy.17 mph93%29.03 "HgN/A
1:50 AM37 °FMostly cloudy.16 mph87%29.00 "HgN/A
1:20 AM37 °FMostly cloudy.16 mph87%29.00 "HgN/A
12:50 AM37 °FPartly cloudy.15 mph87%29.00 "HgN/A
12:20 AM37 °FPassing clouds.16 mph81%29.00 "HgN/A
11:50 PM
Jan 30
36 °FChilly.14 mph87%29.00 "HgN/A
11:20 PM37 °FChilly.15 mph81%29.00 "HgN/A
10:50 PM37 °FChilly.12 mph81%29.00 "HgN/A
10:20 PM37 °FChilly.14 mph81%29.03 "HgN/A
9:20 PM36 °FChilly.10 mph87%29.03 "HgN/A
8:50 PM36 °FChilly.9 mph87%29.00 "HgN/A
8:20 PM37 °FPassing clouds.12 mph87%29.00 "HgN/A
7:50 PM37 °FPassing clouds.12 mph87%29.00 "HgN/A
7:20 PM37 °FPassing clouds.10 mph87%29.00 "HgN/A
6:50 PM36 °FPassing clouds.8 mph93%29.00 "HgN/A
6:20 PM37 °FChilly.10 mph87%29.00 "HgN/A
5:50 PM37 °FChilly.13 mph87%29.00 "HgN/A
5:20 PM37 °FChilly.8 mph93%29.00 "HgN/A
4:50 PM39 °FScattered clouds.12 mph87%29.00 "HgN/A
4:20 PM39 °FPassing clouds.10 mph87%29.00 "HgN/A
3:50 PM41 °FPassing clouds.12 mph87%29.00 "HgN/A
3:20 PM43 °FBroken clouds.12 mph81%29.00 "HgN/A
2:50 PM43 °FScattered clouds.15 mph81%29.00 "HgN/A
2:20 PM45 °FPartly sunny.15 mph76%29.00 "HgN/A
1:50 PM45 °FPartly sunny.15 mph81%29.00 "HgN/A
1:20 PM45 °FPartly sunny.17 mph81%29.00 "HgN/A
12:50 PM45 °FPartly sunny.20 mph81%29.00 "HgN/A
12:20 PM45 °FPartly sunny.20 mph81%29.00 "HgN/A
11:50 AM43 °FPartly sunny.16 mph87%29.00 "HgN/A
11:20 AM43 °FPartly sunny.17 mph93%29.00 "HgN/A
10:50 AM43 °FMore clouds than sun.15 mph87%29.03 "HgN/A
10:20 AM41 °FPartly sunny.13 mph93%29.03 "HgN/A
9:50 AM41 °FPartly sunny.13 mph87%29.03 "HgN/A
9:20 AM39 °FPartly sunny.12 mph87%29.03 "HgN/A
8:50 AM39 °FPartly sunny.9 mph81%29.03 "HgN/A
8:20 AM37 °FPassing clouds.12 mph81%29.03 "HgN/A
7:50 AM36 °FPassing clouds.6 mph81%29.03 "HgN/A
7:20 AM37 °FPassing clouds.6 mph81%29.00 "HgN/A
6:50 AM37 °FPassing clouds.15 mph93%28.97 "HgN/A
6:20 AM39 °FPassing clouds.20 mph87%28.94 "HgN/A
5:50 AM39 °FRain. Passing clouds.20 mph87%28.91 "HgN/A
5:20 AM39 °FPassing clouds.21 mph87%28.88 "HgN/A
4:50 AM39 °FPassing clouds.24 mph87%28.85 "HgN/A
4:20 AM39 °FLight rain. Mostly cloudy.30 mph93%28.80 "HgN/A
Weather by CustomWeather, © 2014

See weather overviewHow to use our weather pages